This is the latest recevied weather packets stored in our database for station/object DC1MAK-13. If no packets are shown the sender has not sent any weather packets the latest 10 day(s).
| Time | Temp. | Humidity | Pressure | Rain* | Wind** | Luminosity | Snow |
|---|---|---|---|---|---|---|---|
| 1787491717 | 22.22° C | 40% | 991.9 hPa | - | - | - | - |
| 1787491408 | 23.33° C | 38% | 991.9 hPa | - | - | - | - |
| 1787491110 | 24.44° C | 38% | 991.9 hPa | - | - | - | - |
| 1787491104 | 24.44° C | 38% | 991.9 hPa | - | - | - | - |
| 1787490497 | 24.44° C | 35% | 991.9 hPa | - | - | - | - |
| 1787490200 | 24.44° C | 37% | 991.9 hPa | - | - | - | - |
| 1787489896 | 23.89° C | 36% | 991.9 hPa | - | - | - | - |
| 1787489891 | 23.89° C | 36% | 991.9 hPa | - | - | - | - |
| 1787489593 | 23.33° C | 36% | 992 hPa | - | - | - | - |
| 1787489284 | 22.78° C | 40% | 992 hPa | - | - | - | - |
| 1787488987 | 22.22° C | 40% | 992 hPa | - | - | - | - |
| 1787488980 | 22.22° C | 40% | 992 hPa | - | - | - | - |
| 1787488687 | 21.67° C | 40% | 992 hPa | - | - | - | - |
| 1787488677 | 21.67° C | 40% | 992 hPa | - | - | - | - |
| 1787488379 | 21.67° C | 40% | 992.1 hPa | - | - | - | - |
| 1787488373 | 21.67° C | 40% | 992.1 hPa | - | - | - | - |
| 1787488076 | 21.67° C | 41% | 992.2 hPa | - | - | - | - |
| 1787487772 | 21.67° C | 42% | 992.2 hPa | - | - | - | - |
| 1787487463 | 23.33° C | 38% | 992.3 hPa | - | - | - | - |
| 1787487167 | 24.44° C | 39% | 992.3 hPa | - | - | - | - |
| 1787487159 | 24.44° C | 39% | 992.3 hPa | - | - | - | - |
| 1787486867 | 24.44° C | 39% | 992.2 hPa | - | - | - | - |
| 1787486856 | 24.44° C | 39% | 992.2 hPa | - | - | - | - |
| 1787486559 | 24.44° C | 37% | 992.3 hPa | - | - | - | - |
| 1787486553 | 24.44° C | 37% | 992.3 hPa | - | - | - | - |
* Rain since midnight (hover to see other rain measurements)
** Current wind speed in m/s (hover to see current wind gust speed)